{"data":{"norad_id":64553,"intl_designator":"2025-135AB","name":"CONNECTA IOT-12","alt_names":[],"object_type":"PAYLOAD","status":"ACTIVE","operator":null,"country":"TURK","launch_date":"2025-06-23","launch_site_code":"AFWTR","launch_vehicle":null,"mission":null,"orbit_class":"UNKNOWN","rcs_meters":null,"size_class":null,"mass_kg":null,"dimensions":null,"purposes":[],"wikipedia_slug":null,"has_3d_model":false,"image_url":null,"decayed_at":null,"tle_current":{"epoch":"2026-09-20T19:34:20.635104Z","epoch_age_seconds":154534,"freshness":"FRESH","line1":"1 64553U 25135AB  26263.81551661  .00002345  00000+0  10849-3 0  9999","line2":"2 64553  97.4838  18.5752 0002686  82.9423 277.2118 15.21128419 69403","mean_motion":15.21128419,"eccentricity":0.0002686,"inclination_deg":97.4838,"raan_deg":18.5752,"arg_perigee_deg":82.9423,"mean_anomaly_deg":277.2118,"bstar":0.00010849,"rev_number":6940,"period_min":94.666563454693,"perigee_km":500.5875758549,"apogee_km":504.2838195081,"semimajor_km":6880.5726976815,"source":"CELESTRAK","updated_at":"2026-09-22T09:00:29.845450Z"}}}